Regional Weather Roundup
Issued by NWS

Home | Current Version | Previous Version | Graphics & Text | Print | Product List | Glossary On
Versions: 1 2 3 4 5 6 7 8 9 10 11 12 13 14 15 16 17 18 19 20 21 22 23 24 25 26 27 28 29 30 31 32 33 34 35 36 37 38 39 40 41 42 43 44 45 46 47 48 49 50
000
ASUS44 KMEG 250410
RWRTN
TENNESSEE HOURLY STATE WEATHER ROUNDUP
NATIONAL WEATHER SERVICE MEMPHIS TN
1100 PM CDT SAT SEP 24 2016

TNZ002-004-019-021-049-052-054-088>092-250500-
WEST TENNESSEE

CITY           SKY/WX    TMP DP  RH WIND       PRES   REMARKS
MEMPHIS INTL   PTCLDY    83  65  54 E8        30.03R
NWS MEMPHIS      N/A     75 N/A N/A MISG        N/A
JACKSON          N/A    N/A N/A N/A MISG      30.05R
DYERSBURG      CLEAR    N/A N/A N/A MISG        N/A
UNION CITY     CLEAR     72  70  94 CALM      30.05R
PARIS          CLEAR     70  66  88 CALM      30.07R
HUNTINGDON       N/A     72  68  88 CALM      30.04S
$$

TNZ008-025-027-028-033-062-065-066-250500-
NORTH MIDDLE TENNESSEE

CITY           SKY/WX    TMP DP  RH WIND       PRES   REMARKS
NASHVILLE      CLEAR     73  65  75 CALM      30.07S
PORTLAND       CLEAR     68  66  94 CALM      30.08S
CLARKSVILLE    CLEAR     72  66  81 CALM      30.07S
SMYRNA         CLEAR     68  64  87 CALM      30.08S
COOKEVILLE     CLEAR     66  64  94 CALM      30.09S
GALLATIN       CLEAR     70  66  88 CALM      30.10R
CROSSVILLE     CLEAR     66  63  90 CALM      30.14S
$$

TNZ061-075-076-078-094-096-097-250500-
SOUTH MIDDLE TENNESSEE

CITY           SKY/WX    TMP DP  RH WIND       PRES   REMARKS
FAYETTEVILLE   CLOUDY    73  64  73 NE6       30.07S
TULLAHOMA      CLEAR     66  61  82 CALM      30.10S
WINCHESTER     CLEAR     66  64  94 CALM      30.08S
MCMINNVILLE    CLEAR     68  68 100 MISG      30.10S
COLUMBIA         N/A    N/A N/A N/A CALM      30.06S
SHELBYVILLE    CLEAR     72  64  78 E3        30.08S
$$

TNZ017-018-042-046-047-250500-
NORTHEAST TENNESSEE

CITY           SKY/WX    TMP DP  RH WIND       PRES   REMARKS
TRI CITIES     CLEAR     65  62  90 CALM      30.13R
ELIZABETHTON     N/A     64  61  88 CALM      30.13S
$$

TNZ012-013-036-069-073-074-250500-
CENTRAL EAST TENNESSEE

CITY           SKY/WX    TMP DP  RH WIND       PRES   REMARKS
KNOXVILLE      CLEAR     76  61  59 N6        30.07
OAK RIDGE      CLEAR     72  65  78 CALM      30.10S
DOWNTOWN KNOXV CLEAR     70  66  88 CALM      30.08S
GATLINBURG     CLEAR     68  63  83 CALM      30.09R
MORRISTOWN     CLEAR     72  63  73 CALM      30.10S
JACKSBORO      CLEAR     66  64  94 CALM      30.13S
$$

TNZ083-085-099-250500-
SOUTHEAST TENNESSEE

CITY           SKY/WX    TMP DP  RH WIND       PRES   REMARKS
CHATTANOOGA    CLEAR     76  64  66 CALM      30.07R
$$

SKY/WX REPORTED AS FAIR MEANS FEW OR NO CLOUDS BELOW
12 THOUSAND FEET.




USA.gov is the U.S. government's official web portal to all federal, state and local government web resources and services.